K4JOZ Weather Reports


time (UTC)temp
C
wind
direction
speed
KPH
gust
KPH
rain 1hr
cm
rain 24hr
cm
rain mn
cm
humidity
%
barometer
mb
20260505050749 8 203 1.6 3.2 0.00 0.00 0.00 41 1011.3
20260505040749 9 0 0.0 0.0 0.00 0.00 0.00 46 1011.0
20260505035457 9 0 0.0 0.0 0.00 0.00 0.00 53 1011.0
20260505035249 9 0 0.0 0.0 0.00 0.00 0.00 53 1011.0
20260505033749 10 0 0.0 0.0 0.00 0.00 0.00 55 1011.1
20260505032249 10 0 0.0 1.6 0.00 0.00 0.00 57 1011.0
20260505030749 10 0 0.0 0.0 0.00 0.00 0.00 61 1011.1
20260505025249 11 0 0.0 1.6 0.00 0.00 0.00 63 1011.2
20260505023749 11 0 0.0 1.6 0.00 0.00 0.00 63 1011.2
20260505022249 12 203 1.6 1.6 0.00 0.00 0.00 66 1011.1
20260505020749 12 0 0.0 0.0 0.00 0.00 0.00 68 1010.9
20260505015249 13 0 0.0 1.6 0.00 0.00 0.00 70 1010.9
20260505013749 14 0 0.0 0.0 0.00 0.00 0.00 70 1010.8
20260505012249 15 0 0.0 1.6 0.00 0.00 0.00 70 1010.7
20260505010749 16 0 0.0 1.6 0.00 0.00 0.00 68 1010.4
20260505005249 18 203 1.6 1.6 0.00 0.00 0.00 62 1010.3
20260505003749 19 0 0.0 1.6 0.00 0.00 0.00 58 1010.3
20260505002249 21 203 1.6 1.6 0.00 0.00 0.00 53 1010.1
20260505000749 22 0 0.0 1.6 0.00 0.00 0.00 49 1010.2
20260504235249 23 227 1.6 4.8 0.00 0.00 0.00 44 1010.0
20260504233749 23 202 3.2 4.8 0.00 0.00 0.00 45 1010.1
20260504232249 23 251 3.2 6.4 0.00 0.00 0.00 44 1010.0
20260504230749 23 267 12.9 14.5 0.00 0.00 0.00 43 1010.2
20260504225249 24 288 11.3 14.5 0.00 0.00 0.00 42 1010.2
20260504223749 24 271 4.8 11.3 0.00 0.00 0.00 42 1010.2
20260504222249 24 271 11.3 22.5 0.00 0.00 0.00 42 1010.1
20260504220749 24 282 11.3 19.3 0.00 0.00 0.00 42 1010.1
20260504215249 24 275 12.9 14.5 0.00 0.00 0.00 45 1010.2
20260504213749 24 275 3.2 9.7 0.00 0.00 0.00 45 1010.2
20260504212249 24 273 9.7 14.5 0.00 0.00 0.00 45 1010.3
20260504210749 25 215 3.2 16.1 0.00 0.00 0.00 46 1010.4
20260504205249 24 229 6.4 16.1 0.00 0.00 0.00 46 1010.6
20260504203749 23 183 3.2 11.3 0.00 0.00 0.00 47 1010.7
20260504202249 23 304 8.0 16.1 0.00 0.00 0.00 46 1010.9
20260504200749 23 259 4.8 16.1 0.00 0.00 0.00 51 1011.1
20260504195249 23 329 6.4 11.3 0.00 0.00 0.00 49 1011.2
20260504193749 23 306 4.8 16.1 0.00 0.00 0.00 52 1011.7
20260504192249 23 284 14.5 16.1 0.00 0.00 0.00 52 1012.0
20260504190749 22 355 4.8 8.0 0.00 0.00 0.00 55 1012.3
20260504185249 22 311 3.2 12.9 0.00 0.00 0.00 52 1012.6
20260504183820 22 270 3.2 9.7 0.00 0.00 0.00 52 1012.9
20260504183749 22 270 3.2 9.7 0.00 0.00 0.00 52 1012.9
20260504182249 21 261 4.8 9.7 0.00 0.00 0.00 56 1013.1
20260504180749 21 303 1.6 6.4 0.00 0.00 0.00 53 1013.1
20260504175249 21 153 1.6 6.4 0.00 0.00 0.00 56 1013.4
20260504173749 20 297 8.0 12.9 0.00 0.00 0.00 56 1013.6
20260504172249 20 117 3.2 11.3 0.00 0.00 0.00 55 1013.8
20260504170749 20 275 3.2 11.3 0.00 0.00 0.00 54 1014.1
20260504150749 15 57 3.2 14.5 0.00 0.00 0.00 64 1016.5
20260504140749 12 69 4.8 14.5 0.00 0.00 0.00 68 1017.2
20260504130749 11 82 3.2 6.4 0.00 0.00 0.00 62 1016.8
20260504080749 2 336 1.6 1.6 0.00 0.00 0.00 31 1016.0